Home   Weather   Altstätten   Past weeks

Flag for Switzerland Past Weather in Altstätten, St. Gallen, Switzerland — Yesterday and Last 2 Weeks

55 °F

Drizzle. Low clouds.

Feels Like: 55 °F
Forecast: 47 / 57 °F
Wind: 3 mph from North

Location: Saint Gallen-Altenrhein

Current Time: Oct 26, 2016 at 12:54:20 AM

Latest Report: Oct 26, 2016 at 12:20 AM

Visibility: N/A

Pressure: 30.27 "Hg

Humidity: 94%

Dew Point: 54 °F

Location of AltstättenLocation

Past Weather in Altstätten — Graph


Altstätten Temperature Yesterday

Maximum temperature yesterday: 59 °F (at 12:20 PM)
Minimum temperature yesterday: 48 °F (at 12:50 AM)
Average temperature yesterday: 55 °F

High & Low Weather Summary for the Past Weeks

High59 °F (Oct 15, 3:50 PM)100% (Oct 12, 1:20 AM)30.27 "Hg (Oct 12, 1:20 AM)
Low36 °F (Oct 13, 1:20 AM)51% (Oct 20, 3:20 PM)29.65 "Hg (Oct 14, 4:20 PM)
Average48 °F88%30.02 "Hg
* Reported Oct 10 11:20 PM — Oct 25 11:50 PM, Altstätten, Weather by CustomWeather, © 2016

Note: Actual official high and low records may vary slightly from our data, if they occured in-between our weather recording intervals... More about our weather records


Altstätten Weather History for the Previous 24 Hours

Scroll right to see more
Time TempWeatherWind HumidityBarometerVisibility
11:50 PM
Tue, Oct 25
55 °FDrizzle. Fog.3 mph100%30.27 "Hg2 mi
11:20 PM55 °FDrizzle. Fog.3 mph100%30.27 "Hg2 mi
10:50 PM55 °FFog.5 mph100%30.24 "Hg2 mi
10:20 PM55 °FFog.3 mph94%30.24 "Hg2 mi
9:50 PM55 °FFog.2 mph94%30.24 "Hg2 mi
9:20 PM55 °FFog.3 mph94%30.24 "Hg2 mi
8:50 PM55 °FPartly cloudy.2 mph94%30.21 "Hg4 mi
8:20 PM54 °FPartly cloudy.1 mph100%30.21 "HgN/A
7:50 PM55 °FPartly cloudy.2 mph94%30.21 "HgN/A
7:20 PM55 °FPassing clouds.3 mph100%30.21 "HgN/A
6:50 PM55 °FPassing clouds.5 mph100%30.21 "HgN/A
6:20 PM55 °FLight rain. Partly cloudy.2 mph100%30.21 "HgN/A
5:50 PM55 °FLight rain. Broken clouds.1 mph100%30.21 "HgN/A
5:20 PM55 °FLight rain. Broken clouds.1 mph100%30.21 "Hg4 mi
4:50 PM55 °FLight rain. Broken clouds.2 mph100%30.21 "HgN/A
4:20 PM57 °FLight rain. Partly sunny.1 mph94%30.18 "HgN/A
3:50 PM57 °FLight rain. Partly sunny.2 mph94%30.18 "HgN/A
3:20 PM57 °FLight rain. Partly sunny.1 mph94%30.18 "HgN/A
2:50 PM57 °FLight rain. Partly sunny.2 mph100%30.18 "HgN/A
2:20 PM57 °FLight rain. Overcast.1 mph94%30.18 "HgN/A
1:50 PM57 °FLight rain. Overcast.3 mph94%30.18 "HgN/A
1:20 PM57 °FLight rain. Partly sunny.3 mph88%30.18 "HgN/A
12:50 PM59 °FSprinkles. Partly sunny.2 mph88%30.18 "HgN/A
12:20 PM59 °FSprinkles. Partly sunny.2 mph88%30.18 "HgN/A
11:50 AM57 °FPartly sunny.3 mph94%30.18 "HgN/A
11:20 AM57 °FPartly sunny.5 mph88%30.18 "HgN/A
10:50 AM57 °FSprinkles. Partly sunny.3 mph94%30.18 "HgN/A
10:20 AM55 °FSprinkles. Partly sunny.3 mph100%30.18 "HgN/A
9:50 AM57 °FSprinkles. Partly sunny.6 mph88%30.18 "HgN/A
9:20 AM55 °FSprinkles. Partly sunny.6 mph94%30.18 "HgN/A
8:50 AM55 °FSprinkles. Partly sunny.2 mph94%30.18 "HgN/A
8:20 AM55 °FLight rain. Partly sunny.7 mph94%30.18 "HgN/A
7:50 AM54 °FLight rain. Passing clouds.6 mph100%30.18 "HgN/A
7:20 AM54 °FRain showers. Fog.5 mph100%30.18 "Hg2 mi
6:50 AM54 °FRain showers. Fog.8 mph100%30.18 "Hg2 mi
6:20 AM54 °FLight rain. Passing clouds.2 mph94%30.12 "Hg4 mi
5:50 AM54 °FOvercast.1 mph94%30.12 "HgN/A
5:20 AM52 °FPassing clouds.6 mph100%30.09 "Hg3 mi
4:50 AM52 °FPassing clouds.5 mph100%30.12 "Hg4 mi
4:20 AM52 °FSprinkles. Fog.3 mph100%30.12 "Hg2 mi
3:50 AM54 °FPartly cloudy.2 mph94%30.12 "HgN/A
3:20 AM54 °FLight rain. Passing clouds.8 mph94%30.12 "HgN/A
2:50 AM55 °FLight rain. Passing clouds.14 mph88%30.09 "HgN/A
2:20 AM52 °FPassing clouds.10 mph100%30.07 "HgN/A
1:50 AM48 °FClear.2 mph100%30.04 "Hg4 mi
1:20 AM48 °FFog.1 mph100%30.01 "Hg1 mi
12:50 AM48 °FLight rain. Passing clouds.1 mph100%30.04 "Hg1 mi
12:20 AM50 °FClear.1 mph100%30.01 "Hg3 mi
Weather by CustomWeather, © 2016

See weather overviewHow to use our weather pages